Location: Risskov
(56.1972°N, 10.2480°E)
Time: 13:22:26
(UTC+00:00)

JB-3 - Pass Details

Date: 05 July 2020
Orbit: 525 x 590 km, 97.3° (Epoch: 07 August)

Event Time Altitude Azimuth Distance (km) Brightness Sun altitude
Rises 21:39:24 0° 15° (NNE) 2,707 8.7 -8.1°
Reaches altitude 10° 21:41:33 10° 17° (NNE) 1,803 7.7 -8.2°
Maximum altitude 21:45:26 73° 103° (ESE) 561 4.2 -8.4°
Drops below altitude 10° 21:49:15 10° 189° (S) 1,770 6.4 -8.6°
Enters shadow 21:49:39 - 189° (S) 1,935 6.6 -8.6°
